Weather History for Rolla, MO

Change the Weather History Date:

Friday, March 1, 2013

  Actual Average Record
Temperature  
Mean Temperature 27 °F 40 °F  
Max Temperature 30 °F 51 °F 79 °F (2006)
Min Temperature 24 °F 30 °F 0 °F (1962)
Degree Days  
Heating Degree Days 38 25  
Month to date heating degree days 38 25  
Since 1 July heating degree days 3624 3815  
Cooling Degree Days 0 0  
Month to date cooling degree days 0 0  
Year to date cooling degree days 0 0  
Moisture  
Dew Point 24 °F    
Average Humidity 83    
Maximum Humidity 88    
Minimum Humidity 78    
Precipitation  
Precipitation 0.02 in 0.08 in 1.34 in (1948)
Month to date precipitation 0.02 0.08  
Year to date precipitation 4.73 4.18  
Sea Level Pressure  
Sea Level Pressure 30.13 in    
Wind  
Wind Speed 9 mph (NW)    
Max Wind Speed 14 mph    
Max Gust Speed 18 mph    
Visibility 5 miles    
Events Snow    
T = Trace of Precipitation, MM = Missing Value Source: NWS Daily Summary

Daily Weather History Graph

Daily Weather History Graph

Search for Another Location

Airport:

Trip Planner

Search our weather history database for the weather conditions in past years. The results will help you decide how hot, cold, wet, or windy it might be!

Date:

Astronomy

Mar. 01, 2013 Rise Set
Actual Time 6:38 AM CST 6:00 PM CST
Civil Twilight 6:12 AM CST 6:27 PM CST
Nautical Twilight 5:41 AM CST 6:57 PM CST
Astronomical Twilight 5:11 AM CST 7:28 PM CST
Moon 10:29 PM CST 8:29 AM CST
Length of Visible Light 12h 15m
Length of Day
11h 22m
Waning Gibbous, 83% of the Moon is Illuminated
Mar 1
Waning Gibbous
Mar 4
Last Quarter
Mar 11
New
Mar 19
First Quarter
Mar 27
Full

Hourly Weather History & Observations

Time (CST) Temp. Windchill Dew Point Humidity Pressure Visibility Wind Dir Wind Speed Gust Speed Precip Events Conditions
12:53 AM 28.0 °F 22.8 °F 25.0 °F 88% 30.12 in 7.0 mi NW 4.6 mph - N/A   Overcast
1:53 AM 28.0 °F 20.8 °F 25.0 °F 88% 30.12 in 9.0 mi NW 6.9 mph - N/A   Overcast
2:29 AM 28.4 °F 21.2 °F 24.8 °F 86% 30.07 in 10.0 mi NW 6.9 mph - N/A   Overcast
2:53 AM 28.0 °F 20.0 °F 24.1 °F 85% 30.11 in 10.0 mi NW 8.1 mph - N/A   Overcast
3:53 AM 28.0 °F 21.7 °F 24.1 °F 85% 30.11 in 10.0 mi NW 5.8 mph - N/A   Overcast
4:04 AM 28.4 °F 22.2 °F 24.8 °F 86% 30.07 in 10.0 mi WNW 5.8 mph - N/A   Overcast
4:53 AM 27.0 °F 19.5 °F 23.0 °F 85% 30.11 in 10.0 mi NW 6.9 mph - N/A   Overcast
5:03 AM 26.6 °F 19.1 °F 23.0 °F 86% 30.07 in 10.0 mi NW 6.9 mph - N/A   Overcast
5:53 AM 26.6 °F 19.1 °F 23.0 °F 86% 30.08 in 4.0 mi NW 6.9 mph - N/A Snow Light Snow
6:27 AM 26.6 °F 20.0 °F 23.0 °F 86% 30.08 in 9.0 mi WNW 5.8 mph - 0.00 in   Overcast
6:51 AM 26.6 °F 18.2 °F 23.0 °F 86% 30.08 in 8.0 mi WNW 8.1 mph - 0.00 in   Overcast
6:53 AM 27.0 °F 18.0 °F 23.0 °F 85% 30.12 in 8.0 mi WNW 9.2 mph - 0.00 in   Overcast
7:40 AM 26.6 °F 18.2 °F 24.8 °F 93% 30.10 in 7.0 mi NW 8.1 mph - N/A   Overcast
7:53 AM 27.0 °F 18.7 °F 23.0 °F 85% 30.14 in 7.0 mi NW 8.1 mph - N/A   Overcast
8:09 AM 26.6 °F 17.5 °F 23.0 °F 86% 30.10 in 6.0 mi NW 9.2 mph - N/A   Overcast
8:20 AM 26.6 °F 16.8 °F 24.8 °F 93% 30.10 in 6.0 mi NW 10.4 mph - N/A   Overcast
8:27 AM 26.6 °F 17.5 °F 23.0 °F 86% 30.11 in 5.0 mi NW 9.2 mph - N/A   Overcast
8:36 AM 28.4 °F 21.2 °F 23.0 °F 80% 30.11 in 6.0 mi NW 6.9 mph - N/A   Haze
8:53 AM 28.0 °F 20.0 °F 24.1 °F 85% 30.14 in 4.0 mi NW 8.1 mph - N/A   Overcast
9:04 AM 28.4 °F 18.0 °F 23.0 °F 80% 30.11 in 2.0 mi NW 12.7 mph - 0.00 in Snow Light Snow
9:43 AM 28.4 °F 20.4 °F 24.8 °F 86% 30.11 in 1.5 mi NW 8.1 mph - 0.01 in Snow Light Snow
9:53 AM 28.0 °F 18.6 °F 24.1 °F 85% 30.15 in 1.5 mi NW 10.4 mph 16.1 mph 0.01 in Snow Light Snow
10:16 AM 28.4 °F 19.1 °F 24.8 °F 86% 30.12 in 2.0 mi NW 10.4 mph - 0.00 in Snow Light Snow
10:33 AM 28.4 °F 18.0 °F 23.0 °F 80% 30.12 in 3.0 mi NW 12.7 mph - 0.00 in Snow Light Snow
10:40 AM 28.4 °F 18.0 °F 23.0 °F 80% 30.12 in 2.0 mi NW 12.7 mph - 0.00 in Snow Light Snow
10:48 AM 28.4 °F 18.5 °F 23.0 °F 80% 30.12 in 1.8 mi NW 11.5 mph - 0.00 in Snow Light Snow
10:53 AM 28.0 °F 19.3 °F 23.0 °F 81% 30.15 in 1.5 mi NW 9.2 mph - 0.00 in Snow Light Snow
11:07 AM 28.4 °F 19.7 °F 24.8 °F 86% 30.12 in 2.0 mi WNW 9.2 mph - 0.00 in Snow Light Snow
11:14 AM 28.4 °F 20.4 °F 24.8 °F 86% 30.12 in 2.5 mi NW 8.1 mph - 0.00 in Snow Light Snow
11:28 AM 28.4 °F 18.5 °F 24.8 °F 86% 30.12 in 1.8 mi WNW 11.5 mph - 0.00 in Snow Light Snow
11:40 AM 28.4 °F 18.0 °F 24.8 °F 86% 30.12 in 2.5 mi WNW 12.7 mph - 0.00 in Snow Light Snow
11:53 AM 28.4 °F 18.5 °F 24.8 °F 86% 30.12 in 3.0 mi WNW 11.5 mph - N/A Snow Light Snow
12:04 PM 28.4 °F 19.1 °F 23.0 °F 80% 30.12 in 4.0 mi NW 10.4 mph - 0.00 in Snow Light Snow
12:12 PM 28.4 °F 19.1 °F 21.2 °F 74% 30.12 in 3.0 mi NW 10.4 mph - 0.00 in Snow Light Snow
12:53 PM 28.9 °F 21.9 °F 24.1 °F 82% 30.14 in 2.5 mi WNW 6.9 mph - 0.00 in Snow Light Snow
1:07 PM 28.4 °F 18.5 °F 23.0 °F 80% 30.11 in 4.0 mi WNW 11.5 mph - 0.00 in Snow Light Snow
1:53 PM 28.9 °F 19.2 °F 24.1 °F 82% 30.14 in 4.0 mi NW 11.5 mph - 0.00 in Snow Light Snow
2:35 PM 28.4 °F 19.1 °F 24.8 °F 86% 30.10 in 2.0 mi NW 10.4 mph - 0.00 in Snow Light Snow
2:42 PM 28.4 °F 20.4 °F 24.8 °F 86% 30.10 in 1.5 mi NW 8.1 mph - 0.00 in Snow Light Snow
2:53 PM 30.0 °F 21.7 °F 24.1 °F 79% 30.14 in 1.5 mi NW 9.2 mph - 0.00 in Snow Light Snow
3:39 PM 30.2 °F 21.3 °F 24.8 °F 80% 30.11 in 2.5 mi NW 10.4 mph - 0.00 in Snow Light Snow
3:50 PM 30.2 °F 21.3 °F 24.8 °F 80% 30.11 in 1.8 mi NW 10.4 mph - 0.00 in Snow Light Snow
3:53 PM 30.0 °F 21.1 °F 25.0 °F 82% 30.15 in 1.8 mi NNW 10.4 mph - 0.00 in Snow Light Snow
4:00 PM 28.4 °F 18.5 °F 24.8 °F 86% 30.11 in 1.8 mi NNW 11.5 mph - 0.00 in Snow Light Snow
4:13 PM 28.4 °F 21.2 °F 24.8 °F 86% 30.11 in 2.0 mi NW 6.9 mph - 0.00 in Snow Light Snow
4:23 PM 28.4 °F 21.2 °F 24.8 °F 86% 30.11 in 2.0 mi NNW 6.9 mph - 0.00 in Snow Light Snow
4:30 PM 28.4 °F 22.2 °F 24.8 °F 86% 30.12 in 1.8 mi NNW 5.8 mph - 0.00 in Snow Light Snow
4:53 PM 28.9 °F 21.1 °F 25.0 °F 85% 30.16 in 1.8 mi NW 8.1 mph - 0.00 in Snow Light Snow
4:59 PM 28.4 °F 20.4 °F 24.8 °F 86% 30.12 in 3.0 mi NW 8.1 mph - 0.00 in Snow Light Snow
5:14 PM 28.4 °F 20.4 °F 26.6 °F 93% 30.13 in 2.0 mi NNW 8.1 mph - 0.00 in Snow Light Snow
5:31 PM 28.4 °F 20.4 °F 26.6 °F 93% 30.13 in 1.5 mi NNW 8.1 mph - N/A Snow Light Snow
5:53 PM 28.0 °F 19.3 °F 25.0 °F 88% 30.17 in 1.2 mi NNW 9.2 mph - 0.00 in Snow Light Snow
6:14 PM 28.4 °F 20.4 °F 24.8 °F 86% 30.15 in 2.5 mi NNW 8.1 mph - 0.00 in Snow Light Snow
6:50 PM 28.4 °F 19.1 °F 24.8 °F 86% 30.16 in 3.0 mi North 10.4 mph - 0.01 in Snow Light Snow
6:53 PM 28.0 °F 17.5 °F 25.0 °F 88% 30.19 in 3.0 mi North 12.7 mph - 0.01 in Snow Light Snow
7:00 PM 26.6 °F 16.8 °F 24.8 °F 93% 30.16 in 4.0 mi North 10.4 mph - N/A   Overcast
7:22 PM 26.6 °F 18.2 °F 23.0 °F 86% 30.16 in 6.0 mi North 8.1 mph - 0.00 in   Overcast
7:53 PM 25.0 °F 18.1 °F 21.9 °F 88% 30.20 in 5.0 mi North 5.8 mph - 0.00 in   Overcast
8:10 PM 24.8 °F 19.1 °F 23.0 °F 93% 30.17 in 7.0 mi North 4.6 mph - N/A   Overcast
8:35 PM 26.6 °F 21.2 °F 24.8 °F 93% 30.17 in 9.0 mi North 4.6 mph - N/A   Overcast
8:53 PM 26.1 °F 17.6 °F 23.0 °F 88% 30.22 in 5.0 mi North 8.1 mph - 0.00 in Snow Light Snow
9:23 PM 26.6 °F 16.8 °F 23.0 °F 86% 30.18 in 2.5 mi North 10.4 mph - 0.00 in Snow Light Snow
9:30 PM 26.6 °F 16.8 °F 21.2 °F 80% 30.18 in 4.0 mi North 10.4 mph - 0.00 in Snow Light Snow
9:53 PM 26.1 °F 17.6 °F 21.9 °F 84% 30.22 in 10.0 mi NNW 8.1 mph - 0.00 in   Overcast
10:04 PM 26.6 °F 16.8 °F 21.2 °F 80% 30.19 in 10.0 mi North 10.4 mph - N/A   Overcast
10:14 PM 24.8 °F 14.6 °F 21.2 °F 86% 30.19 in 10.0 mi North 10.4 mph - N/A   Overcast
10:40 PM 24.8 °F 16.9 °F 21.2 °F 86% 30.19 in 10.0 mi NNW 6.9 mph - N/A   Overcast
10:53 PM 25.0 °F 16.3 °F 21.0 °F 85% 30.23 in 10.0 mi NNW 8.1 mph - N/A   Overcast
11:07 PM 24.8 °F 16.1 °F 21.2 °F 86% 30.19 in 10.0 mi NNW 8.1 mph - N/A   Overcast
11:53 PM 24.1 °F 13.7 °F 19.9 °F 84% 30.24 in 4.0 mi NNW 10.4 mph - 0.00 in Snow Light Snow